Hourly Data Report for October 27, 2014

All times are specified in Local Standard Time (LST). Add 1 hour to adjust for Daylight Saving Time where and when it is observed.

HALL BEACH A
NUNAVUT

68°46'33.000" N
81°14'33.000" W
9.10 m
2402354
71293
YUX

Download Data

Hourly Data (October 2014)
Hourly Data Report for October 27, 2014
Temp Definition
°C
Dew Point Temp Definition
°C
Rel Hum Definition
%
Wind Dir Definition
10's deg

Wind Spd Definition
km/h
Visibility Definition
km
Stn Press Definition
kPa
Hmdx Definition


Wind Chill Definition


Weather Definition


TIME
00:00 Legend Double Dagger -8.1 -9.5 90 11 21 16.1 101.63   -16 LegendNANA
01:00 Legend Double Dagger -8.2 -9.8 88 12 18 16.1 101.63   -15 LegendNANA
02:00 Legend Double Dagger -8.1 -9.9 87 12 18 16.1 101.63   -15 LegendNANA
03:00 Legend Double Dagger -7.6 -9.4 87 12 21 16.1 101.61   -15 LegendNANA
04:00 Legend Double Dagger -7.1 -8.6 89 12 17 16.1 101.62   -14 LegendNANA
05:00 Legend Double Dagger -6.8 -8.2 90 11 17 16.1 101.60   -13 LegendNANA
06:00 Legend Double Dagger -6.6 -8.3 88 10 18 16.1 101.57   -13 LegendNANA
07:00 Legend Double Dagger -6.2 -7.3 92 10 17 16.1 101.57   -12 LegendNANA
08:00 Legend Double Dagger -6.2 -7.2 93 12 18 16.1 101.55   -13 LegendNANA
09:00 Legend Double Dagger -6.4 -7.2 94 10 18 16.1 101.53   -13 LegendNANA
10:00 Legend Double Dagger -5.8 -6.5 95 9 17 16.1 101.51   -12 LegendNANA
11:00 Legend Double Dagger -5.3 -6.4 92 10 22 16.1 101.47   -12 LegendNANA
12:00 Legend Double Dagger -5.4 -6.1 95 9 26 16.1 101.43   -13 Snow
13:00 Legend Double Dagger -5.1 -5.9 94 9 24 16.1 101.40   -12 LegendNANA
14:00 Legend Double Dagger -5.5 -6.0 96 7 26 16.1 101.39   -13 LegendNANA
15:00 Legend Double Dagger -4.9 -5.5 96 9 22 12.9 101.38   -12 Snow
16:00 Legend Double Dagger -5.1 -5.8 95 8 22 8.1 101.36   -12 Snow
17:00 Legend Double Dagger -5.8 -6.5 95 6 18 16.1 101.33   -12 Snow
18:00 Legend Double Dagger -5.6 -6.3 95 7 24 16.1 101.28   -13 Snow
19:00 Legend Double Dagger -5.7 -6.5 94 7 24 16.1 101.25   -13 Snow
20:00 Legend Double Dagger -5.9 -6.9 93 7 22 16.1 101.21   -13 Snow
21:00 Legend Double Dagger -6.1 -7.1 93 6 26 16.1 101.16   -14 Snow
22:00 Legend Double Dagger -5.9 -6.9 93 6 26 16.1 101.12   -14 Snow
23:00 Legend Double Dagger -5.8 -6.6 94 5 26 6.4 101.08   -14 Snow

Notes on Data Quality.

Legend

  • E = Estimated
  • M = Missing
  • NA = Not Available
  • ‡ = Partner data that is not subject to review by the National Climate Archives
Date modified: